User: anonymous   Login
Location: NJAA Observatory
(40.6819°N, 74.8979°W)
Time: 03:21:05
(UTC-04:00)
Language:

Iridium 84 - Orbit

View from above orbital plane
View from above orbital plane
View from above satellite
View from above satellite

Ground track
Ground track

The orbit data is extracted from the following two-line orbital elements,

1 25530U 98066D   16126.48743991  .00000078  00000-0  20714-4 0  9998
2 25530  86.3965 160.4274 0002412  92.1953 267.9519 14.34219707918562
Epoch (UTC): 05 May 2016 11:41:54
Eccentricity: 0.0002412
inclination: 86.3965°
perigee height: 776 km
apogee height: 779 km
right ascension of ascending node: 160.4274°
argument of perigee: 92.1953°
revolutions per day: 14.34219707
mean anomaly at epoch: 267.9519°
orbit number at epoch: 91856

The dashed part of the orbit path shows where the satellite is in the earth's shadow,  

DLR